This is the latest recevied weather packets stored in our database for station/object SR9WXM. If no packets are shown the sender has not sent any weather packets the latest 1 day(s).
| Time | Temp. | Humidity | Pressure | Rain* | Wind** | Luminosity | Snow |
|---|---|---|---|---|---|---|---|
| 1778022019 | 11.67° C | 100% | 0 hPa | - | 4.47 m/s, 200° | - | - |
| 1778021779 | 11.67° C | 100% | 0 hPa | - | 4.02 m/s, 197° | - | - |
| 1778021539 | 11.67° C | 100% | 0 hPa | - | 4.47 m/s, 189° | - | - |
| 1778021299 | 11.67° C | 100% | 0 hPa | - | 4.47 m/s, 194° | - | - |
| 1778021057 | 11.67° C | 100% | 0 hPa | - | 4.47 m/s, 191° | - | - |
| 1778020817 | 11.67° C | 100% | 0 hPa | - | 4.92 m/s, 195° | - | - |
| 1778020577 | 12.22° C | 100% | 0 hPa | - | 4.47 m/s, 197° | - | - |
| 1778020336 | 12.22° C | 100% | 0 hPa | - | 4.47 m/s, 178° | - | - |
| 1778020097 | 12.22° C | 100% | 0 hPa | - | 4.92 m/s, 205° | - | - |
| 1778019855 | 12.22° C | 100% | 0 hPa | - | 5.36 m/s, 195° | - | - |
| 1778019614 | 12.22° C | 100% | 0 hPa | - | 4.92 m/s, 203° | - | - |
| 1778019374 | 12.22° C | 100% | 0 hPa | - | 5.36 m/s, 185° | - | - |
| 1778019134 | 12.22° C | 100% | 0 hPa | - | 5.36 m/s, 203° | - | - |
| 1778018894 | 12.22° C | 100% | 0 hPa | - | 5.81 m/s, 191° | - | - |
| 1778018652 | 12.22° C | 100% | 0 hPa | - | 6.26 m/s, 185° | - | - |
| 1778018413 | 12.22° C | 100% | 0 hPa | - | 5.81 m/s, 193° | - | - |
| 1778018165 | 12.78° C | 100% | 0 hPa | - | 6.26 m/s, 189° | - | - |
| 1778017925 | 12.78° C | 100% | 0 hPa | - | 5.81 m/s, 188° | - | - |
| 1778017685 | 12.78° C | 100% | 0 hPa | - | 6.26 m/s, 177° | - | - |
| 1778017446 | 12.78° C | 100% | 0 hPa | - | 6.26 m/s, 198° | - | - |
| 1778017203 | 12.78° C | 100% | 0 hPa | - | 6.26 m/s, 184° | - | - |
| 1778016963 | 12.78° C | 100% | 0 hPa | - | 6.71 m/s, 205° | - | - |
| 1778016723 | 12.78° C | 100% | 0 hPa | - | 5.81 m/s, 186° | - | - |
| 1778016483 | 12.78° C | 100% | 0 hPa | - | 5.36 m/s, 179° | - | - |
| 1778016241 | 12.78° C | 100% | 0 hPa | - | 7.15 m/s, 194° | - | - |
* Rain since midnight (hover to see other rain measurements)
** Current wind speed in m/s (hover to see current wind gust speed)